Year,Month,Day,Hour,Minute,Value (Times are PST for temperature in C)
2021,08,11,00,00,20.90
2021,08,11,00,01,20.90
2021,08,11,00,02,20.90
2021,08,11,00,03,21.00
2021,08,11,00,04,21.00
2021,08,11,00,05,21.00
2021,08,11,00,06,21.00
2021,08,11,00,07,21.00
2021,08,11,00,08,21.00
2021,08,11,00,09,21.00
2021,08,11,00,10,21.00
2021,08,11,00,11,21.00
2021,08,11,00,12,21.00
2021,08,11,00,13,21.00
2021,08,11,00,14,21.00
2021,08,11,00,15,21.00
2021,08,11,00,16,21.00
2021,08,11,00,17,21.00
2021,08,11,00,18,21.00
2021,08,11,00,19,21.00
2021,08,11,00,20,21.00
2021,08,11,00,21,20.90
2021,08,11,00,22,20.90
2021,08,11,00,23,20.90
2021,08,11,00,24,20.90
2021,08,11,00,25,20.90
2021,08,11,00,26,20.90
2021,08,11,00,27,20.90
2021,08,11,00,28,20.90
2021,08,11,00,29,20.90
2021,08,11,00,30,20.90
2021,08,11,00,31,20.90
2021,08,11,00,32,20.90
2021,08,11,00,33,20.80
2021,08,11,00,34,20.80
2021,08,11,00,35,20.80
2021,08,11,00,36,20.80
2021,08,11,00,37,20.80
2021,08,11,00,38,20.80
2021,08,11,00,39,20.80
2021,08,11,00,40,20.80
2021,08,11,00,41,20.80
2021,08,11,00,42,20.80
2021,08,11,00,43,20.80
2021,08,11,00,44,20.80
2021,08,11,00,45,20.80
2021,08,11,00,46,20.80
2021,08,11,00,47,20.80
2021,08,11,00,48,20.80
2021,08,11,00,49,20.80
2021,08,11,00,50,20.80
2021,08,11,00,51,20.80
2021,08,11,00,52,20.80
2021,08,11,00,53,20.80
2021,08,11,00,54,20.80
2021,08,11,00,55,20.80
2021,08,11,00,56,20.80
2021,08,11,00,57,20.70
2021,08,11,00,58,20.70
2021,08,11,00,59,20.70
2021,08,11,01,00,20.70
2021,08,11,01,01,20.70
2021,08,11,01,02,20.70
2021,08,11,01,03,20.70
2021,08,11,01,04,20.70
2021,08,11,01,05,20.70
2021,08,11,01,06,20.70
2021,08,11,01,07,20.70
2021,08,11,01,08,20.60
2021,08,11,01,09,20.60
2021,08,11,01,10,20.60
2021,08,11,01,11,20.60
2021,08,11,01,12,20.60
2021,08,11,01,13,20.60
2021,08,11,01,14,20.60
2021,08,11,01,15,20.60
2021,08,11,01,16,20.60
2021,08,11,01,17,20.60
2021,08,11,01,18,20.50
2021,08,11,01,19,20.50
2021,08,11,01,20,20.50
2021,08,11,01,21,20.50
2021,08,11,01,22,20.50
2021,08,11,01,23,20.50
2021,08,11,01,24,20.40
2021,08,11,01,25,20.40
2021,08,11,01,26,20.40
2021,08,11,01,27,20.40
2021,08,11,01,28,20.40
2021,08,11,01,29,20.40
2021,08,11,01,30,20.30
2021,08,11,01,31,20.30
2021,08,11,01,32,20.30
2021,08,11,01,33,20.30
2021,08,11,01,34,20.30
2021,08,11,01,35,20.30
2021,08,11,01,36,20.30
2021,08,11,01,37,20.30
2021,08,11,01,38,20.30
2021,08,11,01,39,20.20
2021,08,11,01,40,20.20
2021,08,11,01,41,20.20
2021,08,11,01,42,20.20
2021,08,11,01,43,20.20
2021,08,11,01,44,20.20
2021,08,11,01,45,20.20
2021,08,11,01,46,20.20
2021,08,11,01,47,20.20
2021,08,11,01,48,20.20
2021,08,11,01,49,20.20
2021,08,11,01,50,20.20
2021,08,11,01,51,20.20
2021,08,11,01,52,20.20
2021,08,11,01,53,20.20
2021,08,11,01,54,20.20
2021,08,11,01,55,20.20
2021,08,11,01,56,20.20
2021,08,11,01,57,20.20
2021,08,11,01,58,20.20
2021,08,11,01,59,20.20
2021,08,11,02,00,20.20
2021,08,11,02,01,20.20
2021,08,11,02,02,20.20
2021,08,11,02,03,20.20
2021,08,11,02,04,20.20
2021,08,11,02,05,20.20
2021,08,11,02,06,20.20
2021,08,11,02,07,20.20
2021,08,11,02,08,20.20
2021,08,11,02,09,20.20
2021,08,11,02,10,20.20
2021,08,11,02,11,20.20
2021,08,11,02,12,20.10
2021,08,11,02,13,20.10
2021,08,11,02,14,20.10
2021,08,11,02,15,20.10
2021,08,11,02,16,20.10
2021,08,11,02,17,20.10
2021,08,11,02,18,20.10
2021,08,11,02,19,20.10
2021,08,11,02,20,20.10
2021,08,11,02,21,20.00
2021,08,11,02,22,20.00
2021,08,11,02,23,20.00
2021,08,11,02,24,20.00
2021,08,11,02,25,20.00
2021,08,11,02,26,20.00
2021,08,11,02,27,20.00
2021,08,11,02,28,19.90
2021,08,11,02,29,19.90
2021,08,11,02,30,19.90
2021,08,11,02,31,19.90
2021,08,11,02,32,19.90
2021,08,11,02,33,19.90
2021,08,11,02,34,19.90
2021,08,11,02,35,19.80
2021,08,11,02,36,19.80
2021,08,11,02,37,19.80
2021,08,11,02,38,19.80
2021,08,11,02,39,19.80
2021,08,11,02,40,19.80
2021,08,11,02,41,19.80
2021,08,11,02,42,19.80
2021,08,11,02,43,19.80
2021,08,11,02,44,19.80
2021,08,11,02,45,19.80
2021,08,11,02,46,19.80
2021,08,11,02,47,19.80
2021,08,11,02,48,19.80
2021,08,11,02,49,19.80
2021,08,11,02,50,19.80
2021,08,11,02,51,19.80
2021,08,11,02,52,19.80
2021,08,11,02,53,19.80
2021,08,11,02,54,19.80
2021,08,11,02,55,19.80
2021,08,11,02,56,19.80
2021,08,11,02,57,19.80
2021,08,11,02,58,19.70
2021,08,11,02,59,19.70
2021,08,11,03,00,19.70
2021,08,11,03,01,19.70
2021,08,11,03,02,19.70
2021,08,11,03,03,19.70
2021,08,11,03,04,19.70
2021,08,11,03,05,19.70
2021,08,11,03,06,19.70
2021,08,11,03,07,19.70
2021,08,11,03,08,19.70
2021,08,11,03,09,19.70
2021,08,11,03,10,19.70
2021,08,11,03,11,19.70
2021,08,11,03,12,19.70
2021,08,11,03,13,19.70
2021,08,11,03,14,19.70
2021,08,11,03,15,19.70
2021,08,11,03,16,19.70
2021,08,11,03,17,19.70
2021,08,11,03,18,19.70
2021,08,11,03,19,19.70
2021,08,11,03,20,19.70
2021,08,11,03,21,19.70
2021,08,11,03,22,19.70
2021,08,11,03,23,19.70
2021,08,11,03,24,19.60
2021,08,11,03,25,19.60
2021,08,11,03,26,19.60
2021,08,11,03,27,19.60
2021,08,11,03,28,19.60
2021,08,11,03,29,19.60
2021,08,11,03,30,19.60
2021,08,11,03,31,19.60
2021,08,11,03,32,19.60
2021,08,11,03,33,19.60
2021,08,11,03,34,19.60
2021,08,11,03,35,19.60
2021,08,11,03,36,19.60
2021,08,11,03,37,19.60
2021,08,11,03,38,19.60
2021,08,11,03,39,19.60
2021,08,11,03,40,19.60
2021,08,11,03,41,19.60
2021,08,11,03,42,19.50
2021,08,11,03,43,19.50
2021,08,11,03,44,19.50
2021,08,11,03,45,19.50
2021,08,11,03,46,19.50
2021,08,11,03,47,19.50
2021,08,11,03,48,19.50
2021,08,11,03,49,19.50
2021,08,11,03,50,19.40
2021,08,11,03,51,19.40
2021,08,11,03,52,19.40
2021,08,11,03,53,19.40
2021,08,11,03,54,19.40
2021,08,11,03,55,19.40
2021,08,11,03,56,19.40
2021,08,11,03,57,19.40
2021,08,11,03,58,19.40
2021,08,11,03,59,19.40
2021,08,11,04,00,19.40
2021,08,11,04,01,19.40
2021,08,11,04,02,19.40
2021,08,11,04,03,19.40
2021,08,11,04,04,19.40
2021,08,11,04,05,19.40
2021,08,11,04,06,19.40
2021,08,11,04,07,19.40
2021,08,11,04,08,19.30
2021,08,11,04,09,19.30
2021,08,11,04,10,19.30
2021,08,11,04,11,19.30
2021,08,11,04,12,19.30
2021,08,11,04,13,19.30
2021,08,11,04,14,19.30
2021,08,11,04,15,19.30
2021,08,11,04,16,19.30
2021,08,11,04,17,19.30
2021,08,11,04,18,19.30
2021,08,11,04,19,19.30
2021,08,11,04,20,19.30
2021,08,11,04,21,19.30
2021,08,11,04,22,19.30
2021,08,11,04,23,19.30
2021,08,11,04,24,19.30
2021,08,11,04,25,19.30
2021,08,11,04,26,19.20
2021,08,11,04,27,19.20
2021,08,11,04,28,19.20
2021,08,11,04,29,19.20
2021,08,11,04,30,19.20
2021,08,11,04,31,19.20
2021,08,11,04,32,19.20
2021,08,11,04,33,19.20
2021,08,11,04,34,19.20
2021,08,11,04,35,19.20
2021,08,11,04,36,19.20
2021,08,11,04,37,19.10
2021,08,11,04,38,19.10
2021,08,11,04,39,19.10
2021,08,11,04,40,19.10
2021,08,11,04,41,19.10
2021,08,11,04,42,19.10
2021,08,11,04,43,19.10
2021,08,11,04,44,19.10
2021,08,11,04,45,19.10
2021,08,11,04,46,19.10
2021,08,11,04,47,19.10
2021,08,11,04,48,19.10
2021,08,11,04,49,19.10
2021,08,11,04,50,19.00
2021,08,11,04,51,19.00
2021,08,11,04,52,19.00
2021,08,11,04,53,19.00
2021,08,11,04,54,19.00
2021,08,11,04,55,18.90
2021,08,11,04,56,18.90
2021,08,11,04,57,18.90
2021,08,11,04,58,18.90
2021,08,11,04,59,18.90
2021,08,11,05,00,18.90
2021,08,11,05,01,18.90
2021,08,11,05,02,18.90
2021,08,11,05,03,18.90
2021,08,11,05,04,18.90
2021,08,11,05,05,18.90
2021,08,11,05,06,18.80
2021,08,11,05,07,18.80
2021,08,11,05,08,18.80
2021,08,11,05,09,18.80
2021,08,11,05,10,18.80
2021,08,11,05,11,18.80
2021,08,11,05,12,18.80
2021,08,11,05,13,18.80
2021,08,11,05,14,18.80
2021,08,11,05,15,18.80
2021,08,11,05,16,18.80
2021,08,11,05,17,18.80
2021,08,11,05,18,18.80
2021,08,11,05,19,18.80
2021,08,11,05,20,18.80
2021,08,11,05,21,18.80
2021,08,11,05,22,18.80
2021,08,11,05,23,18.80
2021,08,11,05,24,18.80
2021,08,11,05,25,18.80
2021,08,11,05,26,18.80
2021,08,11,05,27,18.80
2021,08,11,05,28,18.80
2021,08,11,05,29,18.80
2021,08,11,05,30,18.80
2021,08,11,05,31,18.80
2021,08,11,05,32,18.80
2021,08,11,05,33,18.80
2021,08,11,05,34,18.80
2021,08,11,05,35,18.80
2021,08,11,05,36,18.80
2021,08,11,05,37,18.80
2021,08,11,05,38,18.70
2021,08,11,05,39,18.70
2021,08,11,05,40,18.70
2021,08,11,05,41,18.70
2021,08,11,05,42,18.70
2021,08,11,05,43,18.70
2021,08,11,05,44,18.70
2021,08,11,05,45,18.70
2021,08,11,05,46,18.70
2021,08,11,05,47,18.60
2021,08,11,05,48,18.60
2021,08,11,05,49,18.60
2021,08,11,05,50,18.60
2021,08,11,05,51,18.60
2021,08,11,05,52,18.60
2021,08,11,05,53,18.50
2021,08,11,05,54,18.50
2021,08,11,05,55,18.50
2021,08,11,05,56,18.50
2021,08,11,05,57,18.40
2021,08,11,05,58,18.40
2021,08,11,05,59,18.40
2021,08,11,06,00,18.40
2021,08,11,06,01,18.40
2021,08,11,06,02,18.40
2021,08,11,06,03,18.40
2021,08,11,06,04,18.40
2021,08,11,06,05,18.40
2021,08,11,06,06,18.40
2021,08,11,06,07,18.40
2021,08,11,06,08,18.40
2021,08,11,06,09,18.40
2021,08,11,06,10,18.40
2021,08,11,06,11,18.40
2021,08,11,06,12,18.40
2021,08,11,06,13,18.40
2021,08,11,06,14,18.40
2021,08,11,06,15,18.40
2021,08,11,06,16,18.30
2021,08,11,06,17,18.30
2021,08,11,06,18,18.30
2021,08,11,06,19,18.30
2021,08,11,06,20,18.30
2021,08,11,06,21,18.30
2021,08,11,06,22,18.30
2021,08,11,06,23,18.20
2021,08,11,06,24,18.20
2021,08,11,06,25,18.20
2021,08,11,06,26,18.20
2021,08,11,06,27,18.20
2021,08,11,06,28,18.20
2021,08,11,06,29,18.20
2021,08,11,06,30,18.20
2021,08,11,06,31,18.20
2021,08,11,06,32,18.20
2021,08,11,06,33,18.20
2021,08,11,06,34,18.20
2021,08,11,06,35,18.20
2021,08,11,06,36,18.20
2021,08,11,06,37,18.20
2021,08,11,06,38,18.20
2021,08,11,06,39,18.20
2021,08,11,06,40,18.20
2021,08,11,06,41,18.20
2021,08,11,06,42,18.20
2021,08,11,06,43,18.30
2021,08,11,06,44,18.30
2021,08,11,06,45,18.30
2021,08,11,06,46,18.30
2021,08,11,06,47,18.30
2021,08,11,06,48,18.30
2021,08,11,06,49,18.30
2021,08,11,06,50,18.30
2021,08,11,06,51,18.30
2021,08,11,06,52,18.30
2021,08,11,06,53,18.30
2021,08,11,06,54,18.30
2021,08,11,06,55,18.30
2021,08,11,06,56,18.30
2021,08,11,06,57,18.30
2021,08,11,06,58,18.30
2021,08,11,06,59,18.30
2021,08,11,07,00,18.30
2021,08,11,07,01,18.30
2021,08,11,07,02,18.30
2021,08,11,07,03,18.30
2021,08,11,07,04,18.30
2021,08,11,07,05,18.30
2021,08,11,07,06,18.30
2021,08,11,07,07,18.30
2021,08,11,07,08,18.30
2021,08,11,07,09,18.30
2021,08,11,07,10,18.30
2021,08,11,07,11,18.30
2021,08,11,07,12,18.30
2021,08,11,07,13,18.30
2021,08,11,07,14,18.30
2021,08,11,07,15,18.30
2021,08,11,07,16,18.30
2021,08,11,07,17,18.30
2021,08,11,07,18,18.30
2021,08,11,07,19,18.30
2021,08,11,07,20,18.30
2021,08,11,07,21,18.30
2021,08,11,07,22,18.30
2021,08,11,07,23,18.30
2021,08,11,07,24,18.40
2021,08,11,07,25,18.40
2021,08,11,07,26,18.40
2021,08,11,07,27,18.40
2021,08,11,07,28,18.40
2021,08,11,07,29,18.40
2021,08,11,07,30,18.40
2021,08,11,07,31,18.40
2021,08,11,07,32,18.40
2021,08,11,07,33,18.40
2021,08,11,07,34,18.50
2021,08,11,07,35,18.40
2021,08,11,07,36,18.50
2021,08,11,07,37,18.50
2021,08,11,07,38,18.50
2021,08,11,07,39,18.50
2021,08,11,07,40,18.50
2021,08,11,07,41,18.50
2021,08,11,07,42,18.50
2021,08,11,07,43,18.50
2021,08,11,07,44,18.50
2021,08,11,07,45,18.50
2021,08,11,07,46,18.40
2021,08,11,07,47,18.50
2021,08,11,07,48,18.40
2021,08,11,07,49,18.40
2021,08,11,07,50,18.40
2021,08,11,07,51,18.40
2021,08,11,07,52,18.40
2021,08,11,07,53,18.40
2021,08,11,07,54,18.40
2021,08,11,07,55,18.50
2021,08,11,07,56,18.50
2021,08,11,07,57,18.50
2021,08,11,07,58,18.50
2021,08,11,07,59,18.50
2021,08,11,08,00,18.50
2021,08,11,08,01,18.60
2021,08,11,08,02,18.60
2021,08,11,08,03,18.60
2021,08,11,08,04,18.60
2021,08,11,08,05,18.60
2021,08,11,08,06,18.60
2021,08,11,08,07,18.60
2021,08,11,08,08,18.60
2021,08,11,08,09,18.70
2021,08,11,08,10,18.70
2021,08,11,08,11,18.70
2021,08,11,08,12,18.70
2021,08,11,08,13,18.80
2021,08,11,08,14,18.80
2021,08,11,08,15,18.80
2021,08,11,08,16,18.80
2021,08,11,08,17,18.90
2021,08,11,08,18,18.90
2021,08,11,08,19,19.00
2021,08,11,08,20,19.00
2021,08,11,08,21,19.00
2021,08,11,08,22,19.10
2021,08,11,08,23,19.10
2021,08,11,08,24,19.20
2021,08,11,08,25,19.20
2021,08,11,08,26,19.30
2021,08,11,08,27,19.30
2021,08,11,08,28,19.30
2021,08,11,08,29,19.40
2021,08,11,08,30,19.40
2021,08,11,08,31,19.40
2021,08,11,08,32,19.50
2021,08,11,08,33,19.50
2021,08,11,08,34,19.50
2021,08,11,08,35,19.60
2021,08,11,08,36,19.60
2021,08,11,08,37,19.60
2021,08,11,08,38,19.60
2021,08,11,08,39,19.60
2021,08,11,08,40,19.60
2021,08,11,08,41,19.70
2021,08,11,08,42,19.70
2021,08,11,08,43,19.70
2021,08,11,08,44,19.70
2021,08,11,08,45,19.70
2021,08,11,08,46,19.80
2021,08,11,08,47,19.80
2021,08,11,08,48,19.80
2021,08,11,08,49,19.80
2021,08,11,08,50,19.80
2021,08,11,08,51,19.90
2021,08,11,08,52,19.90
2021,08,11,08,53,19.90
2021,08,11,08,54,20.00
2021,08,11,08,55,20.10
2021,08,11,08,56,20.10
2021,08,11,08,57,20.10
2021,08,11,08,58,20.10
2021,08,11,08,59,20.20
2021,08,11,09,00,20.20
2021,08,11,09,01,20.20
2021,08,11,09,02,20.20
2021,08,11,09,03,20.20
2021,08,11,09,04,20.20
2021,08,11,09,05,20.20
2021,08,11,09,06,20.20
2021,08,11,09,07,20.20
2021,08,11,09,08,20.20
2021,08,11,09,09,20.30
2021,08,11,09,10,20.30
2021,08,11,09,11,20.30
2021,08,11,09,12,20.30
2021,08,11,09,13,20.30
2021,08,11,09,14,20.40
2021,08,11,09,15,20.40
2021,08,11,09,16,20.40
2021,08,11,09,17,20.40
2021,08,11,09,18,20.50
2021,08,11,09,19,20.50
2021,08,11,09,20,20.50
2021,08,11,09,21,20.60
2021,08,11,09,22,20.60
2021,08,11,09,23,20.60
2021,08,11,09,24,20.60
2021,08,11,09,25,20.60
2021,08,11,09,26,20.70
2021,08,11,09,27,20.70
2021,08,11,09,28,20.70
2021,08,11,09,29,20.70
2021,08,11,09,30,20.70
2021,08,11,09,31,20.70
2021,08,11,09,32,20.70
2021,08,11,09,33,20.70
2021,08,11,09,34,20.80
2021,08,11,09,35,20.80
2021,08,11,09,36,20.80
2021,08,11,09,37,20.80
2021,08,11,09,38,20.90
2021,08,11,09,39,20.90
2021,08,11,09,40,21.00
2021,08,11,09,41,21.00
2021,08,11,09,42,21.10
2021,08,11,09,43,21.10
2021,08,11,09,44,21.10
2021,08,11,09,45,21.10
2021,08,11,09,46,21.10
2021,08,11,09,47,21.10
2021,08,11,09,48,21.20
2021,08,11,09,49,21.10
2021,08,11,09,50,21.20
2021,08,11,09,51,21.20
2021,08,11,09,52,21.20
2021,08,11,09,53,21.20
2021,08,11,09,54,21.20
2021,08,11,09,55,21.30
2021,08,11,09,56,21.30
2021,08,11,09,57,21.30
2021,08,11,09,58,21.30
2021,08,11,09,59,21.40
2021,08,11,10,00,21.40
2021,08,11,10,01,21.40
2021,08,11,10,02,21.40
2021,08,11,10,03,21.50
2021,08,11,10,04,21.60
2021,08,11,10,05,21.60
2021,08,11,10,06,21.70
2021,08,11,10,07,21.70
2021,08,11,10,08,21.80
2021,08,11,10,09,21.80
2021,08,11,10,10,21.80
2021,08,11,10,11,21.80
2021,08,11,10,12,21.80
2021,08,11,10,13,21.80
2021,08,11,10,14,21.80
2021,08,11,10,15,21.80
2021,08,11,10,16,21.80
2021,08,11,10,17,21.80
2021,08,11,10,18,21.90
2021,08,11,10,19,22.00
2021,08,11,10,20,22.00
2021,08,11,10,21,22.10
2021,08,11,10,22,22.20
2021,08,11,10,23,22.20
2021,08,11,10,24,22.20
2021,08,11,10,25,22.20
2021,08,11,10,26,22.20
2021,08,11,10,27,22.20
2021,08,11,10,28,22.30
2021,08,11,10,29,22.30
2021,08,11,10,30,22.40
2021,08,11,10,31,22.50
2021,08,11,10,32,22.60
2021,08,11,10,33,22.70
2021,08,11,10,34,22.80
2021,08,11,10,35,22.90
2021,08,11,10,36,23.00
2021,08,11,10,37,23.10
2021,08,11,10,38,23.20
2021,08,11,10,39,23.20
2021,08,11,10,40,23.30
2021,08,11,10,41,23.40
2021,08,11,10,42,23.40
2021,08,11,10,43,23.50
2021,08,11,10,44,23.60
2021,08,11,10,45,23.60
2021,08,11,10,46,23.50
2021,08,11,10,47,23.50
2021,08,11,10,48,23.50
2021,08,11,10,49,23.40
2021,08,11,10,50,23.40
2021,08,11,10,51,23.40
2021,08,11,10,52,23.40
2021,08,11,10,53,23.40
2021,08,11,10,54,23.40
2021,08,11,10,55,23.50
2021,08,11,10,56,23.50
2021,08,11,10,57,23.60
2021,08,11,10,58,23.60
2021,08,11,10,59,23.60
2021,08,11,11,00,23.60
2021,08,11,11,01,23.60
2021,08,11,11,02,23.50
2021,08,11,11,03,23.50
2021,08,11,11,04,23.50
2021,08,11,11,05,23.50
2021,08,11,11,06,23.50
2021,08,11,11,07,23.60
2021,08,11,11,08,23.60
2021,08,11,11,09,23.70
2021,08,11,11,10,23.70
2021,08,11,11,11,23.70
2021,08,11,11,12,23.70
2021,08,11,11,13,23.70
2021,08,11,11,14,23.80
2021,08,11,11,15,23.80
2021,08,11,11,16,23.90
2021,08,11,11,17,23.90
2021,08,11,11,18,23.90
2021,08,11,11,19,24.00
2021,08,11,11,20,24.10
2021,08,11,11,21,24.20
2021,08,11,11,22,24.30
2021,08,11,11,23,24.40
2021,08,11,11,24,24.50
2021,08,11,11,25,24.60
2021,08,11,11,26,24.70
2021,08,11,11,27,24.70
2021,08,11,11,28,24.70
2021,08,11,11,29,24.60
2021,08,11,11,30,24.60
2021,08,11,11,31,24.50
2021,08,11,11,32,24.40
2021,08,11,11,33,24.30
2021,08,11,11,34,24.30
2021,08,11,11,35,24.30
2021,08,11,11,36,24.30
2021,08,11,11,37,24.30
2021,08,11,11,38,24.30
2021,08,11,11,39,24.30
2021,08,11,11,40,24.40
2021,08,11,11,41,24.40
2021,08,11,11,42,24.40
2021,08,11,11,43,24.40
2021,08,11,11,44,24.40
2021,08,11,11,45,24.50
2021,08,11,11,46,24.50
2021,08,11,11,47,24.50
2021,08,11,11,48,24.50
2021,08,11,11,49,24.50
2021,08,11,11,50,24.60
2021,08,11,11,51,24.70
2021,08,11,11,52,24.70
2021,08,11,11,53,24.80
2021,08,11,11,54,24.90
2021,08,11,11,55,24.90
2021,08,11,11,56,25.00
2021,08,11,11,57,25.10
2021,08,11,11,58,25.10
2021,08,11,11,59,25.20
2021,08,11,12,00,25.20
2021,08,11,12,01,25.20
2021,08,11,12,02,25.20
2021,08,11,12,03,25.20
2021,08,11,12,04,25.20
2021,08,11,12,05,25.20
2021,08,11,12,06,25.30
2021,08,11,12,07,25.40
2021,08,11,12,08,25.40
2021,08,11,12,09,25.40
2021,08,11,12,10,25.40
2021,08,11,12,11,25.40
2021,08,11,12,12,25.50
2021,08,11,12,13,25.50
2021,08,11,12,14,25.50
2021,08,11,12,15,25.60
2021,08,11,12,16,25.50
2021,08,11,12,17,25.50
2021,08,11,12,18,25.50
2021,08,11,12,19,25.40
2021,08,11,12,20,25.40
2021,08,11,12,21,25.40
2021,08,11,12,22,25.40
2021,08,11,12,23,25.40
2021,08,11,12,24,25.30
2021,08,11,12,25,25.40
2021,08,11,12,26,25.40
2021,08,11,12,27,25.40
2021,08,11,12,28,25.30
2021,08,11,12,29,25.40
2021,08,11,12,30,25.40
2021,08,11,12,31,25.50
2021,08,11,12,32,25.60
2021,08,11,12,33,25.70
2021,08,11,12,34,25.70
2021,08,11,12,35,25.70
2021,08,11,12,36,25.60
2021,08,11,12,37,25.60
2021,08,11,12,38,25.60
2021,08,11,12,39,25.60
2021,08,11,12,40,25.70
2021,08,11,12,41,25.70
2021,08,11,12,42,25.70
2021,08,11,12,43,25.80
2021,08,11,12,44,25.60
2021,08,11,12,45,25.50
2021,08,11,12,46,25.50
2021,08,11,12,47,25.50
2021,08,11,12,48,25.40
2021,08,11,12,49,25.40
2021,08,11,12,50,25.50
2021,08,11,12,51,25.50
2021,08,11,12,52,25.60
2021,08,11,12,53,25.60
2021,08,11,12,54,25.50
2021,08,11,12,55,25.40
2021,08,11,12,56,25.40
2021,08,11,12,57,25.40
2021,08,11,12,58,25.40
2021,08,11,12,59,25.40
2021,08,11,13,00,25.40
2021,08,11,13,01,25.50
2021,08,11,13,02,25.40
2021,08,11,13,03,25.40
2021,08,11,13,04,25.30
2021,08,11,13,05,25.40
2021,08,11,13,06,25.40
2021,08,11,13,07,25.50
2021,08,11,13,08,25.60
2021,08,11,13,09,25.60
2021,08,11,13,10,25.70
2021,08,11,13,11,25.80
2021,08,11,13,12,25.80
2021,08,11,13,13,25.80
2021,08,11,13,14,25.80
2021,08,11,13,15,25.80
2021,08,11,13,16,25.80
2021,08,11,13,17,25.80
2021,08,11,13,18,25.80
2021,08,11,13,19,25.70
2021,08,11,13,20,25.70
2021,08,11,13,21,25.70
2021,08,11,13,22,25.70
2021,08,11,13,23,25.80
2021,08,11,13,24,25.80
2021,08,11,13,25,26.00
2021,08,11,13,26,26.10
2021,08,11,13,27,26.10
2021,08,11,13,28,26.10
2021,08,11,13,29,26.20
2021,08,11,13,30,26.10
2021,08,11,13,31,26.20
2021,08,11,13,32,26.20
2021,08,11,13,33,26.20
2021,08,11,13,34,26.30
2021,08,11,13,35,26.40
2021,08,11,13,36,26.40
2021,08,11,13,37,26.40
2021,08,11,13,38,26.40
2021,08,11,13,39,26.50
2021,08,11,13,40,26.50
2021,08,11,13,41,26.50
2021,08,11,13,42,26.60
2021,08,11,13,43,26.60
2021,08,11,13,44,26.70
2021,08,11,13,45,26.70
2021,08,11,13,46,26.70
2021,08,11,13,47,26.70
2021,08,11,13,48,26.80
2021,08,11,13,49,26.80
2021,08,11,13,50,26.80
2021,08,11,13,51,26.80
2021,08,11,13,52,26.90
2021,08,11,13,53,26.90
2021,08,11,13,54,26.90
2021,08,11,13,55,26.80
2021,08,11,13,56,26.80
2021,08,11,13,57,26.80
2021,08,11,13,58,26.80
2021,08,11,13,59,26.80
2021,08,11,14,00,26.90
2021,08,11,14,01,26.90
2021,08,11,14,02,27.00
2021,08,11,14,03,27.10
2021,08,11,14,04,27.10
2021,08,11,14,05,27.00
2021,08,11,14,06,26.90
2021,08,11,14,07,26.80
2021,08,11,14,08,26.80
2021,08,11,14,09,26.80
2021,08,11,14,10,26.80
2021,08,11,14,11,26.90
2021,08,11,14,12,26.90
2021,08,11,14,13,27.00
2021,08,11,14,14,27.00
2021,08,11,14,15,26.90
2021,08,11,14,16,26.80
2021,08,11,14,17,26.80
2021,08,11,14,18,26.70
2021,08,11,14,19,26.60
2021,08,11,14,20,26.50
2021,08,11,14,21,26.50
2021,08,11,14,22,26.40
2021,08,11,14,23,26.30
2021,08,11,14,24,26.30
2021,08,11,14,25,26.20
2021,08,11,14,26,26.20
2021,08,11,14,27,26.20
2021,08,11,14,28,26.20
2021,08,11,14,29,26.30
2021,08,11,14,30,26.30
2021,08,11,14,31,26.40
2021,08,11,14,32,26.50
2021,08,11,14,33,26.60
2021,08,11,14,34,26.60
2021,08,11,14,35,26.60
2021,08,11,14,36,26.50
2021,08,11,14,37,26.40
2021,08,11,14,38,26.30
2021,08,11,14,39,26.30
2021,08,11,14,40,26.40
2021,08,11,14,41,26.50
2021,08,11,14,42,26.60
2021,08,11,14,43,26.60
2021,08,11,14,44,26.70
2021,08,11,14,45,26.70
2021,08,11,14,46,26.80
2021,08,11,14,47,26.80
2021,08,11,14,48,26.80
2021,08,11,14,49,26.80
2021,08,11,14,50,26.80
2021,08,11,14,51,26.80
2021,08,11,14,52,26.80
2021,08,11,14,53,26.80
2021,08,11,14,54,26.80
2021,08,11,14,55,26.80
2021,08,11,14,56,26.80
2021,08,11,14,57,26.80
2021,08,11,14,58,26.80
2021,08,11,14,59,26.80
2021,08,11,15,00,26.90
2021,08,11,15,01,26.90
2021,08,11,15,02,26.90
2021,08,11,15,03,26.90
2021,08,11,15,04,26.90
2021,08,11,15,05,26.90
2021,08,11,15,06,26.80
2021,08,11,15,07,26.70
2021,08,11,15,08,26.70
2021,08,11,15,09,26.70
2021,08,11,15,10,26.60
2021,08,11,15,11,26.70
2021,08,11,15,12,26.70
2021,08,11,15,13,26.80
2021,08,11,15,14,27.00
2021,08,11,15,15,27.10
2021,08,11,15,16,27.20
2021,08,11,15,17,27.20
2021,08,11,15,18,27.20
2021,08,11,15,19,27.20
2021,08,11,15,20,27.20
2021,08,11,15,21,27.20
2021,08,11,15,22,27.20
2021,08,11,15,23,27.10
2021,08,11,15,24,27.10
2021,08,11,15,25,27.10
2021,08,11,15,26,27.10
2021,08,11,15,27,27.00
2021,08,11,15,28,27.00
2021,08,11,15,29,27.00
2021,08,11,15,30,27.10
2021,08,11,15,31,27.30
2021,08,11,15,32,27.40
2021,08,11,15,33,27.60
2021,08,11,15,34,27.70
2021,08,11,15,35,27.70
2021,08,11,15,36,27.80
2021,08,11,15,37,27.70
2021,08,11,15,38,27.60
2021,08,11,15,39,27.50
2021,08,11,15,40,27.40
2021,08,11,15,41,27.30
2021,08,11,15,42,27.30
2021,08,11,15,43,27.30
2021,08,11,15,44,27.30
2021,08,11,15,45,27.30
2021,08,11,15,46,27.20
2021,08,11,15,47,27.10
2021,08,11,15,48,27.10
2021,08,11,15,49,27.20
2021,08,11,15,50,27.20
2021,08,11,15,51,27.20
2021,08,11,15,52,27.30
2021,08,11,15,53,27.30
2021,08,11,15,54,27.30
2021,08,11,15,55,27.30
2021,08,11,15,56,27.30
2021,08,11,15,57,27.30
2021,08,11,15,58,27.40
2021,08,11,15,59,27.40
2021,08,11,16,00,27.40
2021,08,11,16,01,27.40
2021,08,11,16,02,27.30
2021,08,11,16,03,27.30
2021,08,11,16,04,27.20
2021,08,11,16,05,27.10
2021,08,11,16,06,27.10
2021,08,11,16,07,27.10
2021,08,11,16,08,27.10
2021,08,11,16,09,27.10
2021,08,11,16,10,27.00
2021,08,11,16,11,27.00
2021,08,11,16,12,27.00
2021,08,11,16,13,27.10
2021,08,11,16,14,27.10
2021,08,11,16,15,27.10
2021,08,11,16,16,27.20
2021,08,11,16,17,27.20
2021,08,11,16,18,27.20
2021,08,11,16,19,27.30
2021,08,11,16,20,27.30
2021,08,11,16,21,27.30
2021,08,11,16,22,27.40
2021,08,11,16,23,27.40
2021,08,11,16,24,27.40
2021,08,11,16,25,27.40
2021,08,11,16,26,27.40
2021,08,11,16,27,27.40
2021,08,11,16,28,27.40
2021,08,11,16,29,27.40
2021,08,11,16,30,27.50
2021,08,11,16,31,27.50
2021,08,11,16,32,27.60
2021,08,11,16,33,27.60
2021,08,11,16,34,27.50
2021,08,11,16,35,27.50
2021,08,11,16,36,27.50
2021,08,11,16,37,27.40
2021,08,11,16,38,27.40
2021,08,11,16,39,27.30
2021,08,11,16,40,27.20
2021,08,11,16,41,27.20
2021,08,11,16,42,27.20
2021,08,11,16,43,27.30
2021,08,11,16,44,27.20
2021,08,11,16,45,27.20
2021,08,11,16,46,27.20
2021,08,11,16,47,27.20
2021,08,11,16,48,27.20
2021,08,11,16,49,27.30
2021,08,11,16,50,27.30
2021,08,11,16,51,27.30
2021,08,11,16,52,27.30
2021,08,11,16,53,27.30
2021,08,11,16,54,27.30
2021,08,11,16,55,27.30
2021,08,11,16,56,27.30
2021,08,11,16,57,27.30
2021,08,11,16,58,27.30
2021,08,11,16,59,27.30
2021,08,11,17,00,27.30
2021,08,11,17,01,27.30
2021,08,11,17,02,27.30
2021,08,11,17,03,27.40
2021,08,11,17,04,27.30
2021,08,11,17,05,27.30
2021,08,11,17,06,27.30
2021,08,11,17,07,27.30
2021,08,11,17,08,27.30
2021,08,11,17,09,27.30
2021,08,11,17,10,27.30
2021,08,11,17,11,27.40
2021,08,11,17,12,27.40
2021,08,11,17,13,27.40
2021,08,11,17,14,27.40
2021,08,11,17,15,27.40
2021,08,11,17,16,27.40
2021,08,11,17,17,27.40
2021,08,11,17,18,27.40
2021,08,11,17,19,27.40